This demonstration page uses our WeatherBlox Daily Observations layout. Learn more.

Left ArrowRight Arrow

41.86663, -103.66717

Hourly Observations for March 21, 2020

Temp ( °F °C ) Dew Point ( °F °C ) Humidity (%) Winds ( mph kmh ) Pressure ( in mb ) Visibility ( mi km ) Precip ( " mm )
12:53 am 00:53 Mostly Cloudy 20 -6.7 18 -7.8 92 92 ESE 12 19 30.35 1028 10 16 N/A
1:53 am 01:53 Mostly Cloudy 22 -5.6 20 -6.7 92 92 ESE 12 19 30.32 1027 10 16 N/A
2:53 am 02:53 Cloudy 22 -5.6 20 -6.7 92 92 E 9 15 30.30 1026 10 16 N/A
3:53 am 03:53 Cloudy 24 -4.4 21 -6.1 88 88 E 10 17 30.25 1024 10 16 N/A
4:53 am 04:53 Clear 22 -5.6 19 -7.2 89 89 E 10 17 30.24 1024 10 16 N/A
5:53 am 05:53 Clear 20 -6.7 18 -7.8 92 92 E 7 11 30.26 1025 10 16 N/A
6:53 am 06:53 Clear 20 -6.7 17 -8.3 89 89 N N/A 30.27 1025 10 16 N/A
7:53 am 07:53 Sunny 24 -4.4 19 -7.2 81 81 N N/A 30.29 1026 10 16 N/A
8:53 am 08:53 Sunny 28 -2.2 20 -6.7 72 72 N N/A 30.29 1026 10 16 N/A
9:53 am 09:53 Sunny 30 -1.1 23 -5 75 75 N N/A 30.28 1025 10 16 N/A
10:53 am 10:53 Sunny 35 1.7 26 -3.3 70 70 N N/A 30.25 1024 10 16 N/A
11:53 am 11:53 Sunny 40 4.4 30 -1.1 68 68 VRB 3 6 30.22 1023 10 16 N/A
12:53 pm 12:53 Sunny 45 7.2 33 0.6 63 63 SSE 8 13 30.18 1022 10 16 N/A
1:53 pm 13:53 Sunny 49 9.4 34 1.1 56 56 SSE 8 13 30.13 1020 10 16 N/A
2:53 pm 14:53 Sunny 56 13.3 30 -1.1 37 37 WSW 14 22 30.08 1019 10 16 N/A
3:53 pm 15:53 Sunny 57 13.9 29 -1.7 34 34 SW 13 20 30.04 1017 10 16 N/A
4:53 pm 16:53 Mostly Sunny 55 12.8 30 -1.1 38 38 SSW 8 13 30.03 1017 10 16 N/A
5:53 pm 17:53 Mostly Sunny 55 12.8 27 -2.8 34 34 SSW 13 20 30.04 1017 10 16 N/A
6:53 pm 18:53 Cloudy 50 10 29 -1.7 44 44 S 5 7 30.06 1018 10 16 N/A
7:53 pm 19:53 Cloudy 50 10 26 -3.3 39 39 WSW 10 17 30.06 1018 10 16 N/A
8:53 pm 20:53 Cloudy 48 8.9 26 -3.3 42 42 SSW 8 13 30.04 1017 10 16 N/A
9:53 pm 21:53 Cloudy 43 6.1 29 -1.7 58 58 S 5 7 30.05 1018 10 16 N/A
10:53 pm 22:53 Clear 36 2.2 27 -2.8 70 70 E 7 11 30.05 1018 10 16 N/A
11:53 pm 23:53 Clear 33 0.6 27 -2.8 78 78 E 8 13 30.03 1017 10 16 N/A

Powered by AerisWeather